Skip Page Navigation
NASA JPL Caltech
NASA Logo - Jet Propulsion Laboratory + View the NASA Portal
+ Center for Near-Earth Object Studies
JPL Home Earth Solar System Stars & Galaxies Technology
JPL Solar System Dynamics
BODIES ORBITS EPHEMERIDES TOOLS PHYSICAL DATA DISCOVERY FAQ SITE MAP
JPL Small-Body Database Browser
Search: [ help ]  
183211 (2002 TZ30)
Classification: Main-belt Asteroid          SPK-ID: 2183211
Ephemeris | Orbit Diagram | Orbital Elements | Mission Design | Physical Parameters | Discovery Circumstances | Close-Approach Data ]

[ show orbit diagram ]
Orbital Elements at Epoch 2459000.5 (2020-May-31.0) TDB
Reference: JPL 16 (heliocentric ecliptic J2000)
 Element Value Uncertainty (1-sigma)   Units 
e .1826380858612424 4.2963e-08  
a 2.44272073906711 1.2445e-08 au
q 1.996586898990334 1.091e-07 au
i 2.225997170825928 4.8736e-06 deg
node 193.4337924360774 0.00013641 deg
peri 192.7667391915764 0.00013742 deg
M 222.2758322846597 1.9105e-05 deg
tp 2459533.978365800922
(2021-Nov-15.47836580)
7.6638e-05 TDB
period 1394.469938531641
3.82
1.0656e-05
2.917e-08
d
yr
n .2581626107903592 1.9729e-09 deg/d
Q 2.888854579143886 1.4718e-08 au
  Orbit Determination Parameters
   # obs. used (total)      390  
   data-arc span      8843 days (24.21 yr)  
   first obs. used      1996-02-10  
   last obs. used      2020-04-27  
   planetary ephem.      DE431  
   SB-pert. ephem.      SB431-N16  
   condition code      0  
   norm. resid. RMS      .62011  
   source      ORB  
   producer      Otto Matic  
   solution date      2020-May-21 04:37:17  

Additional Information
 Earth MOID = 1.00086 au 
 Jupiter MOID = 2.56006 au 
 T_jup = 3.476 
[ show covariance matrix ]

Ephemeris | Orbit Diagram | Orbital Elements | Mission Design | Physical Parameters | Discovery Circumstances | Close-Approach Data ]

Physical Parameter Table
Parameter Symbol Value Units Sigma Reference Notes
absolute magnitude H 16.6   n/a MPO352123  

183211 (2002 TZ30)          Discovered 2002-Oct-02 by LINEAR at Socorro
Reference: 20080420/Numbers.arcLast Updated: 2008-04-23

[ show close-approach data ]
Alternate Designations
 2002 TZ30 = 1998 SV6 
Ephemeris | Orbit Diagram | Orbital Elements | Mission Design | Physical Parameters | Discovery Circumstances | Close-Approach Data ]
ABOUT SSD CREDITS/AWARDS PRIVACY/COPYRIGHT GLOSSARY LINKS
FirstGov 2020-Jul-09 01:46 UT
(server date/time)  
NASA Home Page
Site Manager:   Ryan S. Park
Webmaster  Alan B. Chamberlin